Location: Klein M�hlingen
(51.9472°N, 11.7453°E)
Time: 06:48:10
(UTC+00:00)

BlueWalker 3 - Visible Passes

Search period start: 09 December 2022 00:00
Search period end: 19 December 2022 00:00
Orbit: 501 x 518 km, 53.2° (Epoch: 08 December)

Date Brightness Start Highest point End Pass type
(mag) Time Alt. Az. Time Alt. Az. Time Alt. Az.
09 Dec 3.2 17:08:27 10° W 17:12:07 38° SSW 17:14:45 16° SSE visible
10 Dec 3.4 16:50:03 10° W 16:53:40 37° SSW 16:57:17 10° SE visible
11 Dec 3.5 16:31:38 10° W 16:35:14 35° SSW 16:38:48 10° SSE visible
12 Dec 3.7 16:13:13 10° W 16:16:47 34° SW 16:20:20 10° SSE visible
13 Dec 3.9 15:54:48 10° W 15:58:21 32° SW 16:01:50 10° SSE visible
14 Dec 4.1 15:36:23 10° W 15:39:53 31° SW 15:43:20 10° SSE visible
